パンスターズ彗星

C/2025 K2 ( PanSTARRS )

English version
Home page
Updated on August 11, 2025

---------------------------------------------------------------------

・ プロフィール

発見日 2025年5月29日
発見光度 20.4等
発見者 Pan-STARRS 1 telescope (Haleakala)

・ 写真集

・ 軌道要素

Epoch 2025 May 5.0 TT = JDT 2460800.5
T 2025 Oct. 25.33001 TT                                 Pike
q   2.8636108            (2000.0)            P               Q
n   0.00771830     Peri.  232.46820     -0.04868312     -0.54683226
a  25.3583785      Node   113.82776     -0.34251508     +0.79521647
e   0.8870744      Incl.  113.97735     -0.93825016     -0.26192602
P 128
From 24 observations 2025 May 29-July 18, mean residual 0".3.

・ 光度変化

        m1 = 12.5 + 5 logΔ + 10.0 log r

---------------------------------------------------------------------

軌道要素はM.P.E.C. 2025-O159に掲載されたものです。
光度グラフはComet for Windowsで作成したものです。

---------------------------------------------------------------------

Copyright(C) Seiichi Yoshida (comet@aerith.net). All rights reserved.